Location: Hysolar-Haus
(48.7436°N, 9.0965°E)
Time: 20:55:48
(UTC+00:00)

deb Explorer IX - All Passes

Search period start: 18 November 2019 00:00
Search period end: 28 November 2019 00:00
Orbit: 546 x 1105 km, 38.8° (Epoch: 17 November)

Date Brightness Start Highest point End Pass type
(mag) Time Alt. Az. Time Alt. Az. Time Alt. Az.
18 Nov - 00:51:32 10° SSW 00:55:54 20° SSE 00:59:51 10° ESE night (unlit)
18 Nov - 02:37:19 10° SW 02:42:10 28° S 02:46:27 10° ESE visible
18 Nov - 04:24:19 10° WSW 04:28:19 22° SSW 04:31:54 10° SE visible
19 Nov - 00:29:17 10° SSW 00:33:54 21° SSE 00:38:05 10° ESE night (unlit)
19 Nov - 02:15:08 10° SW 02:20:12 29° S 02:24:39 10° ESE visible
19 Nov - 04:02:12 10° WSW 04:06:23 23° SSW 04:10:07 10° SE visible
20 Nov - 00:07:01 10° SSW 00:11:53 22° SSE 00:16:17 10° ESE night (unlit)
20 Nov - 01:52:56 10° WSW 01:58:14 30° S 02:02:51 10° ESE visible
20 Nov - 03:40:03 10° WSW 03:44:25 23° SSW 03:48:19 10° SE visible
20 Nov - 23:44:46 10° SSW 23:49:51 23° SSE 23:54:28 10° ESE night (unlit)
21 Nov - 01:30:45 10° WSW 01:36:14 31° S 01:41:01 10° ESE night (unlit)
21 Nov - 03:17:53 10° WSW 03:22:27 24° SSW 03:26:30 10° SE visible
21 Nov - 21:40:52 10° SSE 21:41:41 10° SE 21:42:30 10° SE night (unlit)
21 Nov - 23:22:31 10° SSW 23:27:47 24° SSE 23:32:36 10° ESE night (unlit)
22 Nov - 01:08:33 10° WSW 01:14:12 32° S 01:19:12 10° ESE night (unlit)
22 Nov - 02:55:44 10° WSW 03:00:28 25° SSW 03:04:42 10° SE visible
22 Nov - 21:18:00 10° SSE 21:19:36 11° SE 21:21:12 10° SE night (unlit)
22 Nov - 23:00:16 10° SSW 23:05:43 25° SSE 23:10:44 10° ESE night (unlit)
23 Nov - 00:46:20 10° WSW 00:52:10 33° S 00:57:20 10° ESE night (unlit)
23 Nov - 02:33:32 10° WSW 02:38:29 25° SSW 02:42:51 10° SE visible
23 Nov - 20:55:25 10° SSE 20:57:31 11° SE 20:59:34 10° SE night (unlit)
23 Nov - 22:38:01 10° SW 22:43:39 26° SSE 22:48:49 10° ESE night (unlit)
24 Nov - 00:24:07 10° WSW 00:30:07 34° S 00:35:27 10° ESE night (unlit)
24 Nov - 02:11:20 10° WSW 02:16:27 26° SSW 02:21:00 10° SE visible
24 Nov - 04:01:15 10° SW 04:02:11 10° SW 04:03:07 10° SSW visible
24 Nov - 20:32:58 10° SSE 20:35:24 12° SE 20:37:49 10° SE night (unlit)
24 Nov - 22:15:48 10° SW 22:21:33 26° SSE 22:26:54 10° ESE night (unlit)
25 Nov - 00:01:54 10° WSW 00:08:03 34° S 00:13:34 10° ESE night (unlit)
25 Nov - 01:49:08 10° WSW 01:54:26 27° SSW 01:59:09 10° SE night (unlit)
25 Nov - 03:38:48 10° SW 03:40:11 11° SW 03:41:31 10° SSW visible
25 Nov - 20:10:35 10° SSE 20:13:18 12° SE 20:15:58 10° ESE night (unlit)
25 Nov - 21:53:34 10° SW 21:59:27 27° SSE 22:04:57 10° ESE night (unlit)
25 Nov - 23:39:42 10° WSW 23:45:58 35° S 23:51:38 10° ESE night (unlit)
26 Nov - 01:26:56 10° WSW 01:32:23 27° SSW 01:37:16 10° SE night (unlit)
26 Nov - 03:16:27 10° SW 03:18:09 11° SW 03:19:48 10° SSW visible
26 Nov - 19:48:15 10° SSE 19:51:10 13° SE 19:54:04 10° ESE night (unlit)
26 Nov - 21:31:22 10° SW 21:37:19 28° SSE 21:42:59 10° ESE night (unlit)
26 Nov - 23:17:29 10° WSW 23:23:53 36° S 23:29:42 10° ESE night (unlit)
27 Nov - 01:04:43 10° WSW 01:10:19 28° SSW 01:15:22 10° SE night (unlit)
27 Nov - 02:54:08 10° SW 02:56:08 12° SW 02:58:02 10° SSW night (unlit)
27 Nov - 19:25:58 10° S 19:29:03 13° SE 19:32:07 10° ESE visible
27 Nov - 21:09:10 10° SW 21:15:12 28° SSE 21:20:58 10° ESE night (unlit)
27 Nov - 22:55:17 10° WSW 23:01:46 36° S 23:07:44 10° ESE night (unlit)
